SCP
1 1 1 1 1 1 1 1 1 1 1 1 1 1 1 1 1 1 1 1 1 1 1 1 1 1 0 0 0 0 0 0 0 0 0 0 0 0 0 0 0 0 0
1 1 1 1 1 1 1 1 1 1 1 1 1 1 1 1 1 1 1 1 1 1 1 1 1 1 1 0 0 0 0 0 0 0 0 0 0 0 0 0 0 0 0
1 1 1 1 1 1 1 1 1 1 1 1 1 1 1 1 1 1 1 1 1 0 1 1 1 1 1 1 0 0 0 0 0 0 0 0 0 0 0 0 0 0 0
1 1 1 1 1 1 1 1 1 1 1 1 1 1 1 1 1 1 1 1 1 1 1 1 1 1 1 0 0 0 0 0 0 0 0 0 0 0 0 0 0 0 0
1 1 1 1 1 1 1 1 1 1 1 1 1 1 1 1 1 1 1 1 1 1 1 1 1 0 0 0 0 0 0 0 0 0 0 0 0 0 0 0 0 0 0
1 1 1 1 1 1 1 1 1 1 1 1 1 1 1 0 0 0 0 1 1 1 1 1 0 0 0 0 0 0 0 0 0 0 0 0 0 0 0 0 0 0 0
2 2 2 2 1 1 1 1 1 1 1 1 1 1 1 0 0 0 0 0 1 1 1 1 1 0 0 0 0 0 0 0 0 0 0 0 0 0 0 0 0 0 0
2 2 2 1 1 1 1 1 1 1 1 1 1 1 1 0 0 0 0 0 0 1 1 1 1 0 0 0 0 0 0 0 0 0 0 0 0 0 0 0 0 0 0
1 1 1 1 1 1 1 1 1 1 1 1 1 1 1 0 0 0 0 0 0 0 1 1 1 0 0 0 0 0 0 0 0 0 0 0 0 0 0 0 0 0 0
1 1 1 1 1 1 1 1 1 1 1 1 1 0 0 0 0 0 0 0 0 0 0 0 0 0 0 0 0 0 0 0 0 0 0 0 0 0 0 0 0 0 0
1 1 1 1 1 1 1 1 1 1 1 1 1 0 0 0 0 0 0 0 0 0 0 0 0 0 0 0 0 0 0 0 0 0 0 0 0 0 0 0 0 0 0
1 1 1 1 1 1 1 1 1 1 1 1 0 0 0 0 0 0 0 0 0 0 0 0 0 0 0 0 0 0 0 0 0 0 0 0 0 0 0 0 0 0 0
1 1 1 1 1 1 1 1 0 0 0 0 0 0 0 0 0 0 0 0 0 0 0 0 0 0 0 0 0 0 0 0 0 0 0 0 0 0 0 0 0 0 0
1 1 1 1 1 1 0 0 0 0 0 0 0 0 0 0 0 0 0 0 0 0 0 0 0 0 0 0 0 0 0 0 0 0 0 0 0 0 0 0 0 0 0
1 1 1 1 1 0 0 0 0 0 0 0 0 0 0 0 0 0 0 0 0 0 0 0 0 0 0 0 0 0 0 0 0 0 0 0 0 0 0 0 0 0 0
1 1 1 1 0 0 0 0 0 0 0 0 0 0 0 0 0 0 0 0 0 0 0 0 0 0 0 0 0 0 0 0 0 0 0 0 0 0 0 0 0 0 0
1 1 1 0 0 0 0 0 0 0 0 0 0 0 0 0 0 0 0 0 0 0 0 0 0 0 0 0 0 0 0 0 0 0 0 0 0 0 0 0 0 0 0
1 1 1 0 0 0 0 0 0 0 0 0 0 0 0 0 0 0 0 0 0 0 0 0 0 0 0 0 0 0 0 0 0 0 0 0 0 0 0 0 0 0 0
1 1 0 0 0 0 0 0 0 0 0 0 0 0 0 0 0 0 0 0 0 0 0 0 0 0 0 0 0 0 0 0 0 0 0 0 0 0 0 0 0 0 0
1 0 0 0 0 0 0 0 0 0 0 0 0 0 0 0 0 0 0 0 0 0 0 0 0 0 0 0 0 0 0 0 0 0 0 0 0 0 0 0 0 0 0
0 0 0 0 0 0 0 0 0 0 0 0 0 0 0 0 0 0 0 0 0 0 0 0 0 0 0 0 0 0 0 0 0 0 0 0 0 0 0 0 0 0 0
0 0 0 0 0 0 0 0 0 0 0 0 0 0 0 0 0 0 0 0 0 0 0 0 0 0 0 0 0 0 0 0 0 0 0 0 0 0 0 0 0 0 0
0 0 0 0 0 0 0 0 0 0 0 0 0 0 0 0 0 0 0 0 0 0 0 0 0 0 0 0 0 0 0 0 0 0 0 0 0 0 0 0 0 0 0
0 0 0 0 0 0 0 0 0 0 0 0 0 0 0 0 0 0 0 0 0 0 0 0 0 0 0 0 0 0 0 0 0 0 0 0 0 0 0 0 0 0 0
0 0 0 0 0 0 0 0 0 0 0 0 0 0 0 0 0 0 0 0 0 0 0 0 0 0 0 0 0 0 0 0 0 0 0 0 0 0 0 0 0 0 0
0 0 0 0 0 0 0 0 0 0 0 0 0 0 0 0 0 0 0 0 0 0 0 0 0 0 0 0 0 0 0 0 0 0 0 0 0 0 0 0 0 0 0
Wind_Speed
7 7 5 6 5 5 4 4 3 3 2 3 3 3 3 3 3 3 4 3 4 4 4 4 4 3 2 2 2 2 2 2 2 2 1 1 1 1 3 3 2 4 6
6 6 5 5 5 5 4 4 3 3 3 3 3 3 4 4 4 4 4 4 4 4 4 3 3 3 3 3 2 2 2 2 2 3 2 1 2 2 3 3 3 4 4
6 6 5 5 5 4 3 3 3 3 3 3 3 3 3 3 2 3 3 3 4 3 3 3 3 2 2 2 2 2 2 2 1 2 2 1 1 1 2 2 3 2 3
6 5 5 4 4 4 4 3 3 3 3 2 2 2 2 2 2 2 2 3 3 2 2 2 2 2 2 2 2 2 2 1 1 1 1 1 1 1 1 2 2 1 2
5 5 4 4 4 4 4 4 3 3 3 2 1 1 1 1 2 2 2 2 2 2 2 1 0 1 1 0 1 0 1 1 0 0 1 0 1 1 1 2 2 1 2
4 4 4 4 4 3 3 3 3 2 2 2 1 1 1 1 1 1 0 0 0 0 1 0 1 1 2 3 3 3 2 1 1 0 1 1 1 1 2 2 1 1 2
4 3 4 4 4 3 3 3 3 3 2 2 2 2 2 3 3 3 2 1 1 1 1 1 1 0 2 2 3 3 4 4 2 1 2 2 2 2 2 2 1 1 2
4 4 4 4 4 4 3 3 3 3 3 2 2 2 2 3 4 3 3 1 1 2 2 2 1 2 3 2 3 3 3 3 2 2 2 2 3 3 3 2 2 2 2
4 4 4 4 3 3 4 3 3 3 3 3 2 3 3 4 4 3 2 1 2 2 3 3 3 3 4 4 3 3 3 3 5 6 5 4 4 5 5 3 3 2 2
4 4 3 3 3 3 3 3 3 3 3 3 3 3 3 4 4 4 3 1 1 2 2 3 5 4 5 5 3 2 2 2 2 3 3 3 2 3 4 2 2 2 2
4 4 4 4 4 3 3 3 3 3 3 4 4 4 4 4 4 4 4 2 2 2 2 3 4 6 6 5 4 3 2 2 1 1 1 1 2 2 3 2 2 1 2
4 4 4 4 3 4 3 3 3 3 4 4 4 4 3 3 4 4 4 3 4 3 3 4 4 6 7 7 5 5 4 3 1 1 2 2 2 2 2 2 2 1 1
4 4 4 4 3 4 4 3 2 2 3 3 3 3 3 3 4 5 4 4 5 4 4 5 6 6 5 5 5 5 4 2 2 2 2 2 2 1 1 1 1 1 2
4 4 5 4 4 5 4 4 3 2 2 2 2 3 3 3 3 2 2 3 4 4 3 4 4 4 3 3 3 2 2 2 2 2 2 2 1 1 2 2 1 1 1
4 4 5 4 5 6 7 6 5 6 4 3 3 3 3 3 3 4 3 3 3 3 2 2 2 2 2 2 2 3 3 3 3 3 3 3 3 3 2 2 2 2 2
3 3 4 4 5 6 7 8 13 11 12 12 10 7 6 6 5 6 6 5 5 4 3 2 3 3 3 3 3 3 3 3 3 3 3 3 3 3 3 3 3 3 2
3 3 3 4 4 5 5 6 6 8 12 13 12 10 8 6 6 5 5 4 4 4 3 3 3 3 4 4 3 4 4 4 3 3 4 3 3 3 3 3 2 3 3
3 4 3 3 4 4 5 4 5 5 5 6 7 8 7 7 6 5 4 4 4 4 4 4 4 4 4 4 5 4 4 4 4 4 4 4 4 4 4 4 4 4 4
3 3 3 3 4 4 4 4 5 6 6 5 4 4 4 5 6 6 5 4 5 5 5 5 5 5 5 4 4 4 4 4 4 4 4 5 4 4 4 4 4 5 4
4 5 4 3 4 4 4 5 5 6 6 5 5 4 3 3 4 5 4 4 5 5 5 5 5 5 4 4 4 4 4 5 5 5 5 4 4 4 4 5 5 4 4
3 5 6 4 4 4 4 4 5 5 6 6 6 5 5 4 5 6 5 5 5 5 5 5 5 5 4 4 4 5 6 5 5 5 5 4 4 4 3 3 4 4 4
3 4 4 4 5 4 5 5 6 6 7 7 6 6 7 5 5 6 6 6 6 5 4 4 5 5 5 5 5 6 6 6 6 5 5 5 5 5 4 4 4 4 4
4 5 5 5 5 5 5 6 6 6 7 7 6 5 5 5 5 6 6 5 5 5 4 4 5 5 5 5 5 6 6 5 5 6 6 5 5 5 4 5 5 5 5
5 6 6 6 5 5 6 6 6 7 7 7 6 5 6 6 6 6 6 5 5 4 4 4 5 7 8 6 6 7 6 5 6 5 7 6 6 5 4 4 5 6 5
5 6 6 6 5 6 6 6 6 6 6 6 5 5 6 5 5 5 4 4 5 5 6 5 5 6 9 10 8 7 6 6 5 6 6 5 6 6 6 6 5 5 5
5 5 5 5 5 6 5 5 5 6 5 5 5 5 5 5 5 4 4 4 4 4 5 5 7 8 7 7 8 7 5 5 6 7 6 5 5 5 6 5 7 6 6
Wind_Direction
183 186 184 181 186 186 197 205 207 209 209 205 205 209 217 219 217 218 231 228 225 232 234 228 227 235 249 248 234 236 236 219 233 269 274 263 179 203 173 213 191 186 198
175 175 179 176 176 182 195 197 195 198 204 207 204 209 223 224 219 218 228 233 231 236 243 240 240 234 238 259 261 245 240 231 218 250 265 257 215 200 192 201 210 213 215
170 170 170 171 174 181 188 187 187 190 201 210 203 206 224 228 222 227 229 236 235 230 234 241 243 239 242 244 251 264 264 256 214 230 248 233 239 240 205 224 251 253 247
159 163 162 167 169 169 175 175 173 179 194 202 201 205 214 231 233 235 231 237 242 229 228 245 251 245 239 241 243 258 257 265 251 238 246 240 247 258 188 229 258 264 269
149 158 161 158 164 170 169 164 164 172 187 159 158 191 211 215 239 233 229 226 230 236 235 223 153 63 46 205 244 270 268 250 249 303 286 275 300 327 268 251 252 261 257
146 157 156 158 157 154 155 152 146 150 136 123 148 177 199 266 32 80 202 255 187 285 325 314 153 112 104 107 99 75 60 8 358 37 349 346 341 331 296 284 275 282 281
141 142 140 140 140 139 144 136 138 136 126 121 127 114 86 49 39 60 69 74 60 38 23 10 311 1 108 109 104 85 66 54 65 71 34 353 342 334 323 317 308 286 268
134 135 137 139 138 134 129 125 125 121 119 113 114 110 85 54 40 50 81 105 74 49 39 38 39 28 31 57 94 86 72 59 79 91 82 30 13 356 341 322 297 299 286
132 129 127 129 127 132 134 133 131 123 115 112 101 90 85 64 43 47 60 87 93 82 65 56 63 58 37 55 80 83 76 68 69 81 85 71 52 32 19 13 351 338 317
122 115 112 114 116 123 122 130 130 126 124 118 103 88 86 77 58 49 57 75 77 80 79 63 54 56 64 66 74 77 71 54 51 55 55 42 49 45 39 29 1 338 326
113 112 108 106 108 111 116 124 122 120 119 114 107 95 84 80 69 57 60 62 56 63 69 64 57 71 72 66 62 65 75 66 46 54 57 48 44 47 45 33 22 359 337
110 116 115 111 118 117 111 120 127 135 133 124 113 97 81 83 76 71 74 62 44 56 58 63 63 71 72 65 62 57 54 46 38 49 47 43 42 42 32 8 2 354 317
100 110 107 99 92 97 101 101 113 124 125 121 124 115 102 95 88 79 89 74 61 68 71 75 79 85 87 77 65 49 42 37 34 41 41 37 33 32 18 22 18 2 342
103 100 101 99 92 77 68 65 66 57 80 97 98 105 97 86 76 66 93 97 92 89 96 101 97 91 81 72 64 53 41 34 31 33 22 24 27 31 35 29 14 357 10
99 107 110 103 95 80 67 47 52 53 44 62 72 82 93 89 58 51 55 68 67 78 97 105 96 87 81 66 58 58 53 40 34 27 20 13 18 25 25 15 2 355 4
114 117 119 116 110 107 102 83 56 62 63 62 65 78 80 85 89 74 68 63 61 66 77 77 68 59 56 54 50 50 49 39 19 15 17 17 20 24 20 8 7 2 359
94 101 113 121 123 121 117 113 104 75 66 62 60 67 79 81 79 75 67 54 59 73 75 68 59 53 48 43 39 42 39 33 22 25 26 18 16 18 18 2 5 359 356
91 96 105 112 113 112 112 113 114 114 103 84 65 64 75 77 70 58 53 59 69 71 68 64 58 55 50 45 41 38 38 35 28 25 26 19 15 14 13 6 6 1 350
85 85 86 94 102 106 109 104 99 99 100 102 99 82 74 85 72 59 59 58 63 63 63 62 57 56 54 47 41 41 44 41 32 29 28 19 11 7 6 359 357 354 350
80 82 90 99 105 107 104 103 102 102 100 98 93 93 103 93 83 73 65 60 64 62 60 61 62 58 53 46 43 40 41 41 32 27 22 10 2 1 1 356 353 350 350
95 93 91 90 89 93 95 97 100 102 100 94 84 70 70 80 78 76 71 64 60 57 53 50 56 56 48 45 45 43 43 38 30 18 9 358 353 351 348 345 342 343 349
89 94 91 87 87 85 91 95 97 98 99 98 96 82 67 71 73 72 71 66 62 59 53 50 53 53 45 41 43 44 41 31 17 5 355 349 347 342 341 340 342 343 345
95 95 91 88 87 89 90 91 93 94 94 93 92 90 86 79 77 74 72 69 64 60 54 55 59 58 52 49 50 51 41 23 2 351 345 343 339 333 338 343 343 347 350
95 95 95 95 96 96 91 89 89 90 92 92 89 86 84 80 78 74 72 70 67 64 60 60 63 61 58 54 50 51 40 17 354 346 342 329 325 327 337 341 341 343 342
88 90 92 92 92 90 90 91 92 92 94 93 90 87 86 85 83 80 77 77 74 68 63 61 59 58 58 57 51 47 36 22 10 350 330 322 325 329 337 339 339 337 338
92 96 95 93 94 95 96 97 96 96 95 92 88 87 87 87 86 84 81 77 75 73 65 63 65 63 56 55 54 55 35 13 1 345 326 314 318 334 342 336 338 338 338